This demonstration page uses our WeatherBlox Daily Observations layout. Learn more.

Left ArrowRight Arrow

Hourly Observations for January 28, 2017

Temp ( °F °C ) Dew Point ( °F °C ) Humidity (%) Winds ( mph kmh ) Pressure ( in mb ) Visibility ( mi km ) Precip ( " mm )
12:58 am 00:58 Clear 27 -2.8 27 -2.9 99 99 WNW 9 15 30.07 1018 10 16 0.00 0.00
1:58 am 01:58 Clear 29 -1.9 28 -2.1 99 99 WNW 12 19 30.07 1018 10 16 0.00 0.00
2:58 am 02:58 Clear 27 -2.7 27 -2.8 99 99 WNW 12 19 30.07 1018 10 16 0.00 0.00
3:58 am 03:58 Clear 28 -2.1 28 -2.3 99 99 WNW 10 17 30.06 1018 10 16 0.00 0.00
4:58 am 04:58 Clear 29 -1.8 28 -2.4 96 96 WNW 13 20 30.06 1018 10 16 0.00 0.00
5:58 am 05:58 Mostly Cloudy 29 -1.6 27 -2.7 92 92 WNW 14 22 30.06 1018 10 16 0.00 0.00
6:58 am 06:58 Mostly Cloudy 29 -1.7 27 -2.6 94 94 WNW 10 17 30.05 1018 10 16 0.00 0.00
7:58 am 07:58 Sunny 29 -1.7 26 -3.1 90 90 WNW 12 19 30.07 1018 10 16 0.00 0.00
8:58 am 08:58 Sunny 31 -0.6 28 -2.4 88 88 WNW 14 22 30.06 1018 10 16 0.00 0.00
9:58 am 09:58 Mostly Sunny 34 1.3 28 -2.1 78 78 WNW 15 24 30.06 1018 10 16 0.00 0.00
10:58 am 10:58 Sunny 35 1.9 28 -2.2 75 75 WNW 20 31 30.07 1018 10 16 0.00 0.00
11:58 am 11:58 Mostly Cloudy 37 2.7 29 -1.7 73 73 WNW 17 28 30.05 1018 10 16 0.00 0.00
12:58 pm 12:58 Partly Cloudy 37 2.7 29 -1.4 75 75 WNW 17 28 30.03 1017 10 16 0.00 0.00
1:58 pm 13:58 Mostly Cloudy 37 2.8 30 -1.3 75 75 WNW 14 22 30.02 1017 10 16 0.00 0.00
2:58 pm 14:58 Cloudy 38 3.3 31 -0.8 75 75 WNW 13 20 30.01 1016 10 16 0.00 0.00
3:04 pm 15:04 Mostly Cloudy with Light Rain 37 3 32 0 81 81 WNW 14 22 30.00 1016 10 16 0.00 0.00
3:08 pm 15:08 Mostly Cloudy with Light Snow 37 3 32 0 81 81 NW 15 24 30.00 1016 10 16 0.00 0.00
3:58 pm 15:58 Cloudy with Light Snow 36 2.4 35 1.9 97 97 WNW 12 19 30.01 1016 10 16 0.00 0.03
4:23 pm 16:23 Cloudy 37 3 34 1 87 87 WNW 12 19 30.00 1016 10 16 0.00 0.00
4:27 pm 16:27 Cloudy with Light Snow 37 3 36 2 93 93 WNW 10 17 30.00 1016 7 11 0.00 0.00
4:42 pm 16:42 Cloudy with Light Snow 36 2 36 2 100 100 NW 10 17 30.00 1016 7 11 0.00 0.00
4:58 pm 16:58 Cloudy with Light Snow 36 2.1 36 2 99 99 WNW 9 15 30.00 1016 8 13 0.00 0.03
5:12 pm 17:12 Cloudy with Light Rain 36 2 36 2 100 100 WNW 8 13 30.00 1016 7 11 0.00 0.00
5:31 pm 17:31 Cloudy 36 2 36 2 100 100 WNW 9 15 30.00 1016 8 13 0.00 0.00
5:58 pm 17:58 Cloudy 36 2.1 35 1.9 99 99 WNW 7 11 30.00 1016 10 16 0.00 0.03
6:22 pm 18:22 Cloudy 36 2 36 2 100 100 WNW 9 15 30.00 1016 10 16 0.00 0.00
6:32 pm 18:32 Cloudy with Light Rain 36 2 36 2 100 100 WNW 9 15 30.00 1016 10 16 0.00 0.00
6:41 pm 18:41 Cloudy with Light Rain 36 2 36 2 100 100 WNW 8 13 30.00 1016 10 16 0.00 0.00
6:58 pm 18:58 Cloudy with Light Rain 36 2.1 36 2 99 99 WNW 6 9 30.01 1016 10 16 0.00 0.03
7:01 pm 19:01 Cloudy with Drizzle 36 2 36 2 100 100 NW 6 9 30.00 1016 10 16 0.00 0.00
7:25 pm 19:25 Cloudy 36 2 36 2 100 100 NW 15 24 30.00 1016 10 16 0.00 0.00
7:28 pm 19:28 Cloudy 36 2 36 2 100 100 NW 15 24 30.00 1016 10 16 0.00 0.00
7:43 pm 19:43 Cloudy 36 2 36 2 100 100 NW 13 20 30.00 1016 10 16 0.00 0.00
7:58 pm 19:58 Cloudy 36 2.2 35 1.8 97 97 NW 15 24 30.01 1016 10 16 0.00 0.03
8:58 pm 20:58 Cloudy 36 2.1 35 1.9 99 99 NW 12 19 30.01 1016 10 16 0.00 0.00
9:46 pm 21:46 Cloudy 36 2 34 1 93 93 NW 20 31 30.00 1016 10 16 0.00 0.00
9:58 pm 21:58 Cloudy 36 2.4 34 1.2 92 92 NW 16 26 30.01 1016 10 16 0.00 0.00
10:58 pm 22:58 Cloudy 36 2.1 34 1.1 93 93 NW 15 24 30.02 1017 10 16 0.00 0.00
11:04 pm 23:04 Cloudy 36 2 34 1 93 93 NW 12 19 30.00 1016 10 16 0.00 0.00
11:28 pm 23:28 Cloudy 36 2 32 0 87 87 NW 15 24 30.03 1017 10 16 0.00 0.00
11:31 pm 23:31 Cloudy 36 2 32 0 87 87 NW 10 17 30.03 1017 10 16 0.00 0.00
11:37 pm 23:37 Cloudy 36 2 32 0 87 87 NW 15 24 30.03 1017 10 16 0.00 0.00
11:43 pm 23:43 Cloudy 36 2 32 0 87 87 NW 13 20 30.03 1017 10 16 0.00 0.00
11:58 pm 23:58 Mostly Cloudy 35 1.6 33 0.6 93 93 NW 17 28 30.04 1017 10 16 0.00 0.00

Powered by AerisWeather